Location: ???????
(52.3000°N, 54.4667°E)
Time: 21:29:06
(UTC+00:00)

AQUARIUS - Pass Details

Date: 24 January 2020
Orbit: 651 x 652 km, 98.0° (Epoch: 18 February)

Event Time Altitude Azimuth Distance (km) Brightness Sun altitude
Rises 13:33:46 0° 162° (SSE) 2,963 7.6 -6.3°
Reaches altitude 10° 13:35:58 10° 162° (SSE) 2,056 6.8 -6.7°
Maximum altitude 13:40:27 85° 75° (ENE) 662 4.2 -7.3°
Drops below altitude 10° 13:44:59 10° 346° (NNW) 2,071 6.7 -7.9°
Sets 13:47:12 0° 346° (NNW) 2,987 7.5 -8.2°
